• In Italy
  • List of Countries
  • For 7 days
  • Water Temperature
  • Satellite Maps
  • Weather Map
  • Weather Widgets
  • user-avatar
    Login

    Hourly Weather Lewis

    Today, 23 September, Sunday

    Time Temperature Precipitation Wind Pressure Humidity
    00:00 +8°C° 0 mm 3 mps 752 mmHg 79%
    01:00 +8°C° 0.4 mm 3 mps 752 mmHg 78%
    02:00 +8°C° 0.4 mm 3 mps 752 mmHg 77%
    03:00 +8°C° 0.4 mm 3 mps 752 mmHg 76%
    04:00 +7°C° 0.3 mm 4 mps 752 mmHg 76%
    05:00 +7°C° 0.3 mm 4 mps 753 mmHg 75%
    06:00 +7°C° 0 mm 5 mps 753 mmHg 75%
    07:00 +8°C° 0.2 mm 5 mps 754 mmHg 75%
    08:00 +8°C° 0.2 mm 6 mps 754 mmHg 74%
    09:00 +8°C° 0.2 mm 7 mps 755 mmHg 73%
    10:00 +9°C° 0.1 mm 7 mps 755 mmHg 71%
    11:00 +9°C° 0.1 mm 8 mps 756 mmHg 69%
    12:00 +9°C° 0.1 mm 8 mps 757 mmHg 66%
    13:00 +8°C° 0 mm 9 mps 757 mmHg 65%
    14:00 +8°C° 0 mm 9 mps 758 mmHg 65%
    15:00 +8°C° 0 mm 9 mps 758 mmHg 64%
    16:00 +8°C° 0 mm 9 mps 759 mmHg 66%
    17:00 +7°C° 0 mm 9 mps 759 mmHg 68%
    18:00 +7°C° 0 mm 8 mps 760 mmHg 70%
    19:00 +7°C° 0.1 mm 8 mps 760 mmHg 70%
    20:00 +7°C° 0.1 mm 8 mps 761 mmHg 71%
    21:00 +7°C° 0.1 mm 8 mps 761 mmHg 71%
    22:00 +7°C° 0.1 mm 8 mps 762 mmHg 71%
    23:00 +7°C° 0.1 mm 8 mps 762 mmHg 71%

    Tomorrow, 24 September, Monday

    Time Temperature Precipitation Wind Pressure Humidity
    00:00 +7°C° 0.1 mm 8 mps 762 mmHg 70%
    01:00 +7°C° 0.1 mm 8 mps 762 mmHg 70%
    02:00 +7°C° 0.1 mm 8 mps 762 mmHg 70%
    03:00 +7°C° 0.1 mm 8 mps 763 mmHg 70%
    04:00 +7°C° 0.1 mm 8 mps 763 mmHg 71%
    05:00 +7°C° 0.1 mm 8 mps 763 mmHg 72%
    06:00 +8°C° 0.1 mm 7 mps 763 mmHg 73%
    07:00 +9°C° 0.1 mm 7 mps 763 mmHg 72%
    08:00 +9°C° 0.1 mm 7 mps 764 mmHg 70%
    09:00 +9°C° 0.1 mm 7 mps 764 mmHg 69%
    10:00 +10°C° 0.1 mm 7 mps 764 mmHg 68%
    11:00 +10°C° 0.1 mm 7 mps 764 mmHg 67%
    12:00 +10°C° 0.1 mm 7 mps 764 mmHg 66%
    13:00 +10°C° 0 mm 8 mps 764 mmHg 68%
    14:00 +10°C° 0 mm 8 mps 764 mmHg 70%
    15:00 +10°C° 0 mm 8 mps 764 mmHg 72%
    16:00 +10°C° 0.1 mm 9 mps 764 mmHg 74%
    17:00 +10°C° 0.1 mm 9 mps 764 mmHg 76%
    18:00 +8°C° 0.1 mm 10 mps 763 mmHg 78%
    19:00 +8°C° 0.1 mm 10 mps 763 mmHg 80%
    20:00 +9°C° 0.1 mm 10 mps 763 mmHg 81%
    21:00 +9°C° 0.1 mm 10 mps 763 mmHg 83%
    22:00 +9°C° 0 mm 10 mps 763 mmHg 83%
    23:00 +9°C° 0 mm 11 mps 762 mmHg 83%

    Day after tomorrow, 25 September, Tuesday

    Time Temperature Precipitation Wind Pressure Humidity
    00:00 +9°C° 0 mm 11 mps 762 mmHg 84%
    01:00 +8°C° 0 mm 11 mps 762 mmHg 82%
    02:00 +8°C° 0 mm 11 mps 761 mmHg 80%
    03:00 +8°C° 0 mm 11 mps 761 mmHg 79%
    04:00 +8°C° 0 mm 12 mps 760 mmHg 77%
    05:00 +8°C° 0 mm 13 mps 759 mmHg 76%
    06:00 +8°C° 0 mm 14 mps 758 mmHg 74%
    07:00 +8°C° 0.3 mm 14 mps 757 mmHg 75%
    08:00 +8°C° 0.3 mm 15 mps 756 mmHg 77%
    09:00 +7°C° 0.3 mm 16 mps 755 mmHg 78%
    10:00 +7°C° 0.7 mm 17 mps 754 mmHg 81%
    11:00 +9°C° 0.7 mm 17 mps 753 mmHg 84%
    12:00 +9°C° 0.7 mm 17 mps 753 mmHg 87%
    13:00 +9°C° 0.6 mm 17 mps 752 mmHg 88%
    14:00 +10°C° 0.6 mm 16 mps 751 mmHg 90%
    15:00 +10°C° 0.6 mm 15 mps 751 mmHg 91%
    16:00 +10°C° 0.5 mm 14 mps 751 mmHg 92%
    17:00 +12°C° 0.5 mm 12 mps 751 mmHg 94%
    18:00 +12°C° 0.5 mm 10 mps 751 mmHg 95%
    19:00 +12°C° 0.6 mm 9 mps 751 mmHg 95%
    20:00 +12°C° 0.6 mm 8 mps 751 mmHg 96%
    21:00 +11°C° 0.6 mm 8 mps 751 mmHg 96%
    22:00 +11°C° 1.2 mm 7 mps 751 mmHg 96%
    23:00 +11°C° 1.2 mm 7 mps 751 mmHg 96%

    26 September, Wednesday

    Time Temperature Precipitation Wind Pressure Humidity
    00:00 +11°C° 1.2 mm 6 mps 750 mmHg 97%
    01:00 +11°C° 1.5 mm 6 mps 750 mmHg 96%
    02:00 +11°C° 1.5 mm 6 mps 750 mmHg 96%
    03:00 +13°C° 1.5 mm 6 mps 750 mmHg 95%
    04:00 +13°C° 1.8 mm 6 mps 749 mmHg 96%
    05:00 +13°C° 1.8 mm 5 mps 749 mmHg 96%
    06:00 +13°C° 1.8 mm 4 mps 748 mmHg 97%
    07:00 +13°C° 0.5 mm 4 mps 749 mmHg 96%
    08:00 +13°C° 0.5 mm 5 mps 749 mmHg 96%
    09:00 +13°C° 0.5 mm 5 mps 749 mmHg 96%
    10:00 +13°C° 0 mm 6 mps 750 mmHg 95%
    11:00 +13°C° 0 mm 6 mps 750 mmHg 93%
    12:00 +12°C° 0 mm 7 mps 751 mmHg 92%
    13:00 +12°C° 0 mm 7 mps 751 mmHg 91%
    14:00 +11°C° 0 mm 7 mps 751 mmHg 91%
    15:00 +11°C° 0 mm 7 mps 752 mmHg 90%
    16:00 +11°C° 0.2 mm 7 mps 752 mmHg 91%
    17:00 +11°C° 0.2 mm 7 mps 752 mmHg 92%
    18:00 +10°C° 0.2 mm 6 mps 753 mmHg 93%
    19:00 +10°C° 0.1 mm 6 mps 753 mmHg 92%
    20:00 +10°C° 0.1 mm 6 mps 753 mmHg 91%
    21:00 +10°C° 0.1 mm 6 mps 754 mmHg 90%
    22:00 +9°C° 0.5 mm 6 mps 754 mmHg 89%
    23:00 +9°C° 0.5 mm 5 mps 753 mmHg 88%

    27 September, Thursday

    Time Temperature Precipitation Wind Pressure Humidity
    00:00 +9°C° 0.5 mm 5 mps 753 mmHg 88%
    01:00 +8°C° 0.5 mm 5 mps 753 mmHg 87%
    02:00 +8°C° 0.5 mm 5 mps 753 mmHg 87%
    03:00 +8°C° 0.5 mm 5 mps 753 mmHg 86%
    04:00 +8°C° 1 mm 5 mps 752 mmHg 87%
    05:00 +8°C° 1 mm 6 mps 752 mmHg 89%
    06:00 +8°C° 1 mm 6 mps 752 mmHg 90%
    07:00 +7°C° 1.6 mm 6 mps 753 mmHg 90%
    08:00 +7°C° 1.6 mm 6 mps 753 mmHg 89%
    09:00 +7°C° 1.6 mm 6 mps 754 mmHg 89%
    10:00 +7°C° 0.4 mm 6 mps 754 mmHg 84%
    11:00 +8°C° 0.4 mm 7 mps 755 mmHg 79%
    12:00 +9°C° 0.4 mm 7 mps 756 mmHg 74%
    13:00 +9°C° 0 mm 7 mps 756 mmHg 72%
    14:00 +9°C° 0 mm 7 mps 756 mmHg 69%
    15:00 +9°C° 0 mm 7 mps 757 mmHg 66%
    16:00 +9°C° 0 mm 7 mps 757 mmHg 68%
    17:00 +8°C° 0 mm 7 mps 758 mmHg 69%
    18:00 +8°C° 0 mm 7 mps 758 mmHg 71%
    19:00 +8°C° 0 mm 6 mps 759 mmHg 72%
    20:00 +8°C° 0 mm 6 mps 759 mmHg 73%
    21:00 +7°C° 0 mm 6 mps 760 mmHg 74%
    22:00 +7°C° 0 mm 6 mps 760 mmHg 73%
    23:00 +8°C° 0 mm 5 mps 760 mmHg 73%

    28 September, Friday

    Time Temperature Precipitation Wind Pressure Humidity
    00:00 +8°C° 0 mm 5 mps 761 mmHg 72%
    01:00 +8°C° 0.1 mm 6 mps 761 mmHg 72%
    02:00 +8°C° 0.1 mm 6 mps 761 mmHg 73%
    03:00 +8°C° 0.1 mm 6 mps 761 mmHg 73%
    04:00 +8°C° 0.1 mm 6 mps 761 mmHg 73%
    05:00 +8°C° 0.1 mm 6 mps 761 mmHg 73%
    06:00 +8°C° 0.1 mm 6 mps 761 mmHg 73%
    07:00 +8°C° 0.1 mm 6 mps 761 mmHg 72%
    08:00 +8°C° 0.1 mm 6 mps 762 mmHg 72%
    09:00 +9°C° 0.1 mm 6 mps 762 mmHg 71%
    10:00 +9°C° 0.1 mm 6 mps 762 mmHg 69%
    11:00 +10°C° 0.1 mm 6 mps 762 mmHg 68%
    12:00 +10°C° 0.1 mm 6 mps 763 mmHg 66%
    13:00 +10°C° 0 mm 6 mps 762 mmHg 68%
    14:00 +10°C° 0 mm 6 mps 762 mmHg 69%
    15:00 +10°C° 0 mm 6 mps 762 mmHg 70%
    16:00 +9°C° 0 mm 6 mps 762 mmHg 72%
    17:00 +9°C° 0 mm 6 mps 762 mmHg 73%
    18:00 +8°C° 0 mm 6 mps 762 mmHg 74%
    19:00 +8°C° 0 mm 6 mps 762 mmHg 74%
    20:00 +8°C° 0 mm 7 mps 762 mmHg 75%
    21:00 +8°C° 0 mm 7 mps 762 mmHg 76%
    22:00 +7°C° 0 mm 8 mps 761 mmHg 76%
    23:00 +7°C° 0 mm 9 mps 760 mmHg 77%
    Show more